User: anonymous   Login
Location: *
(42.0175°N, 9.4056°E)
Time: 11:16:19
(UTC+00:00)
Language:

Cosmos 883 Rocket - Orbit

View from above orbital plane
View from above orbital plane
View from above satellite
View from above satellite

Ground track
Ground track

The orbit data is extracted from the following two-line orbital elements,

1  9613U 76122B   19295.20193167  .00000055  00000-0  39198-4 0  9996
2  9613  82.9549 235.6722 0031451  48.0233 312.3596 13.77445353153267
Epoch (UTC): 22 October 2019 04:50:46
Eccentricity: 0.0031451
inclination: 82.9549°
perigee height: 950 km
apogee height: 996 km
right ascension of ascending node: 235.6722°
argument of perigee: 48.0233°
revolutions per day: 13.77445353
mean anomaly at epoch: 312.3596°
orbit number at epoch: 15326

The dashed part of the orbit path shows where the satellite is in the earth's shadow,  

DLR